{"data":{"norad_id":61243,"intl_designator":"2024-175A","name":"STARLINK-11300 [DTC]","alt_names":[],"object_type":"PAYLOAD","status":"ACTIVE","operator":null,"country":"US","launch_date":"2024-09-25","launch_site_code":"AFWTR","launch_vehicle":null,"mission":null,"orbit_class":"UNKNOWN","rcs_meters":null,"size_class":null,"mass_kg":null,"dimensions":null,"purposes":["comms"],"wikipedia_slug":null,"has_3d_model":false,"image_url":null,"decayed_at":null,"tle_current":{"epoch":"2026-09-21T21:39:45.958464Z","epoch_age_seconds":71132,"freshness":"FRESH","line1":"1 61243U 24175A   26264.90261526 -.00001110  00000+0 -43008-5 0  9990","line2":"2 61243  53.1593 169.0305 0001430  85.8510 274.2672 15.69698079114188","mean_motion":15.69698079,"eccentricity":0.000143,"inclination_deg":53.1593,"raan_deg":169.0305,"arg_perigee_deg":85.851,"mean_anomaly_deg":274.2672,"bstar":-4.3008e-6,"rev_number":11418,"period_min":91.737386906747,"perigee_km":358.79734458001,"apogee_km":360.72438336911,"semimajor_km":6737.8978639746,"source":"CELESTRAK","updated_at":"2026-09-22T09:00:49.347076Z"}}}